Regional Weather Roundup
Issued by NWS

Home | Current Version | Previous Version | Graphics & Text | Print | Product List | Glossary On
Versions: 1 2 3 4 5 6 7 8 9 10 11 12 13 14 15 16 17 18 19 20 21 22 23 24 25 26 27 28 29 30 31 32 33 34 35 36 37 38 39 40 41 42 43 44 45 46 47 48 49 50
324
ASUS43 KDMX 280201
RWRIA

WEATHER ROUNDUP FOR IOWA
NATIONAL WEATHER SERVICE DES MOINES IA
900 PM CDT SAT MAY 27 2017

NOTE: "FAIR" INDICATES FEW OR NO CLOUDS BELOW 12,000 FEET WITH NO
SIGNIFICANT WEATHER AND/OR OBSTRUCTIONS TO VISIBILITY.

* - THESE STATIONS ARE NOT NWS STATIONS...THUS NOT UNDER NWS
QUALITY CONTROL.  THEY ALSO DO NOT REPORT WEATHER SUCH
AS PRECIPITATION OR FOG.

IAZ001>003-012>014-020>022-031>034-043>046-280300-
   NORTHWEST IOWA

CITY           SKY/WX    TMP DP  RH WIND       PRES   REMARKS
CARROLL *      PTCLDY    64  59  82 CALM      29.89F
CHEROKEE *     MOCLDY    64  51  64 NW6       29.91S
DENISON *      CLOUDY    63  52  67 W5        29.91S
LE MARS *      CLOUDY    63  52  67 W7        29.94R
ORANGE CITY *  LGT RAIN  61  55  82 W6        29.93S
SHELDON *      CLOUDY    63  55  77 W9        29.91S
SIOUX CITY     LGT RAIN  64  52  64 NW9       29.92R
SPENCER        LGT RAIN  63  55  75 W8        29.90S
STORM LAKE *   CLEAR     64  50  59 NW8       29.90F
$$

IAZ055>058-069>071-079>083-090>094-280300-
   SOUTHWEST IOWA

CITY           SKY/WX    TMP DP  RH WIND       PRES   REMARKS
ATLANTIC *     CLEAR     63  57  82 N5        29.88S
AUDUBON *      PTCLDY    61  55  82 CALM      29.90F
CLARINDA *     PTCLDY    64  61  88 N9        29.89R
COUNCIL BLFS * CLOUDY    64  57  77 N7        29.89F
CRESTON *      CLEAR     63  59  88 N8        29.88S
HARLAN  *      CLOUDY    66  55  68 N3        29.92F
LAMONI         CLEAR     65  60  84 NE8       29.85R
RED OAK *      CLEAR     63  59  88 N6        29.89R
SHENANDOAH *   PTCLDY    64  59  82 N8        29.88S
$$

IAZ047>049-059>061-072>074-084-280300-
   CENTRAL IOWA

CITY           SKY/WX    TMP DP  RH WIND       PRES   REMARKS
AMES           MOCLDY    61  55  81 NE3       29.88F
ANKENY *       CLOUDY    61  55  82 N6        29.89R
BOONE *        CLEAR     61  57  88 NE5       29.88S
CHARITON *     CLOUDY    63  59  88 N9        29.86R
DES MOINES     MOCLDY    63  55  75 N6        29.87R
GRINNELL*      PTCLDY    59  55  86 N7        29.86F
KNOXVILLE *    MOCLDY    61  55  82 N9        29.84S
MARSHALLTOWN   MOCLDY    59  55  87 N8        29.86R
NEWTON *       CLOUDY    59  54  82 N8        29.85S
PELLA *        PTCLDY    60  55  82 N6        29.86S
PERRY *          N/A     63  58  84 NE3       29.88F
$$

IAZ004>006-015-016-023>025-035-036-280300-
   NORTH CENTRAL IOWA

CITY           SKY/WX    TMP DP  RH WIND       PRES   REMARKS
ALGONA *       CLOUDY    66  52  59 CALM      29.88F
CLARION *      MOCLDY    63  52  67 CALM      29.88F
ESTHERVILLE    CLOUDY    63  52  67 W5        29.88F
FORT DODGE *   CLEAR     59  52  77 SE5       29.89F
MASON CITY     CLOUDY    61  50  67 SE3       29.89F
FOREST CITY *  MOCLDY    61  37  41 CALM      29.88F
WEBSTER CITY * CLEAR     61  55  82 E3        29.87S
IOWA FALLS *   CLOUDY    63  55  75 CALM      29.89S
$$

IAZ007>011-017>019-026>030-037>042-050>054-066-280300-
   NORTHEAST IOWA

CITY           SKY/WX    TMP DP  RH WIND       PRES   REMARKS
CEDAR RAPIDS   CLOUDY    61  61 100 N8        29.84R
CHARLES CITY * CLOUDY    63  54  72 NE5       29.88F
CLINTON *      CLOUDY    67  63  87 NE5       29.81
DECORAH *      CLOUDY    59  57  94 CALM      29.87S
DUBUQUE        CLOUDY    61  59  93 N9        29.82F
MONTICELLO *   CLOUDY    63  59  88 CALM      29.82F
OELWEIN *      CLOUDY    61  59  94 N7        29.86F
WATERLOO       CLOUDY    60  53  77 N8        29.85F
$$

IAZ064-065-067-068-078-280300-
   EAST CENTRAL IOWA

CITY           SKY/WX    TMP DP  RH WIND       PRES   REMARKS
DAVENPORT      CLOUDY    67  61  81 NE6       29.81F
IOWA CITY      MOCLDY    65  60  84 N8        29.83S
MT. PLEASANT * CLOUDY    68  61  77 N5        29.80S
MUSCATINE *    CLOUDY    66  63  88 N7        29.80F
QUAD CITIES    CLOUDY    70  60  70 NE3       29.80S
$$

IAZ062-063-075>077-085>089-095>099-280300-
   SOUTHEAST IOWA

CITY           SKY/WX    TMP DP  RH WIND       PRES   REMARKS
BURLINGTON     CLOUDY    68  65  90 N6        29.79S
FAIRFIELD *    CLOUDY    64  63  94 N12       29.81R
FORT MADISON * CLOUDY    68  64  88 N5        29.81R
KEOKUK *       PTCLDY    68  64  88 NE3       29.78S
OSKALOOSA *    MOCLDY    62  58  87 N10       29.84S
OTTUMWA        CLOUDY    63  60  90 N12       29.83S
WASHINGTON *   PTCLDY    64  64 100 N12       29.82F
$$

ABBREVIATIONS USED IN REMARKS
   TC - TEMPERATURES IN CELSIUS
  WCI - WIND CHILL INDEX
   HX - HEAT INDEX
  VSB - VISIBILITY
$$





USA.gov is the U.S. government's official web portal to all federal, state and local government web resources and services.